| time (UTC) | temp F | wind direction | speed MPH | gust MPH | rain 1hr in | rain 24hr in | rain mn in | humidity % | barometer mb |
| 20260504141143 | 60 | 194 | 3.0 | 14.0 | 0.00 | 0.00 | 0.00 | 49 | 1004.2 |
| 20260504140642 | 60 | 159 | 4.0 | 14.0 | 0.00 | 0.00 | 0.00 | 47 | 1003.7 |
| 20260504140141 | 60 | 270 | 4.0 | 14.0 | 0.00 | 0.00 | 0.00 | 48 | 1003.8 |
| 20260504130639 | 57 | 286 | 2.0 | 7.0 | 0.00 | 0.00 | 0.00 | 54 | 1004.5 |
| 20260504130139 | 56 | 14 | 3.0 | 10.0 | 0.00 | 0.00 | 0.00 | 57 | 1004.5 |
| 20260504120136 | 50 | 132 | 1.0 | 8.0 | 0.00 | 0.00 | 0.00 | 70 | 1004.8 |
| 20260504110633 | 39 | 155 | 0.0 | 2.0 | 0.00 | 0.00 | 0.00 | 94 | 1005.0 |
| 20260504110134 | 39 | 127 | 0.0 | 1.0 | 0.00 | 0.00 | 0.00 | 95 | 1005.0 |
| 20260504100125 | 40 | 157 | 0.0 | 1.0 | 0.00 | 0.00 | 0.00 | 93 | 1004.7 |
| 20260504090117 | 42 | 222 | 1.0 | 3.0 | 0.00 | 0.00 | 0.00 | 92 | 1004.7 |
| 20260504081846 | 42 | 220 | 1.0 | 2.0 | 0.00 | 0.00 | 0.00 | 90 | 1004.6 |
| 20260504081113 | 42 | 201 | 1.0 | 2.0 | 0.00 | 0.00 | 0.00 | 91 | 1004.6 |
| 20260504080614 | 42 | 146 | 0.0 | 2.0 | 0.00 | 0.00 | 0.00 | 92 | 1004.6 |
| 20260504080111 | 42 | 160 | 0.0 | 2.0 | 0.00 | 0.00 | 0.00 | 91 | 1004.7 |
| 20260504070111 | 42 | 170 | 0.0 | 2.0 | 0.00 | 0.00 | 0.00 | 92 | 1004.5 |
| 20260504050552 | 39 | 148 | 0.0 | 2.0 | 0.00 | 0.00 | 0.00 | 83 | 1005.1 |
| 20260504045821 | 38 | 141 | 0.0 | 1.0 | 0.00 | 0.00 | 0.00 | 82 | 1005.0 |
| 20260504045050 | 38 | 113 | 0.0 | 1.0 | 0.00 | 0.00 | 0.00 | 83 | 1005.1 |
| 20260504044550 | 38 | 179 | 0.0 | 1.0 | 0.00 | 0.00 | 0.00 | 83 | 1005.1 |
| 20260504044050 | 38 | 206 | 0.0 | 1.0 | 0.00 | 0.00 | 0.00 | 83 | 1005.2 |
| 20260504043548 | 38 | 207 | 0.0 | 1.0 | 0.00 | 0.00 | 0.00 | 83 | 1005.2 |
| 20260504043046 | 37 | 207 | 0.0 | 1.0 | 0.00 | 0.00 | 0.00 | 82 | 1005.2 |
| 20260504042547 | 37 | 207 | 0.0 | 1.0 | 0.00 | 0.00 | 0.00 | 82 | 1005.2 |
| 20260504042044 | 37 | 207 | 0.0 | 1.0 | 0.00 | 0.00 | 0.00 | 83 | 1005.3 |
| 20260504041545 | 37 | 213 | 0.0 | 1.0 | 0.00 | 0.00 | 0.00 | 82 | 1005.2 |
| 20260504041044 | 36 | 208 | 0.0 | 1.0 | 0.00 | 0.00 | 0.00 | 82 | 1005.2 |
| 20260504040550 | 36 | 219 | 0.0 | 1.0 | 0.00 | 0.00 | 0.00 | 82 | 1005.2 |
| 20260504040046 | 36 | 144 | 0.0 | 1.0 | 0.00 | 0.00 | 0.00 | 82 | 1005.2 |
| 20260504035815 | 35 | 156 | 0.0 | 1.0 | 0.00 | 0.00 | 0.00 | 82 | 1005.3 |
| 20260504035044 | 35 | 146 | 0.0 | 1.0 | 0.00 | 0.00 | 0.00 | 82 | 1005.3 |
| 20260504034544 | 35 | 186 | 0.0 | 1.0 | 0.00 | 0.00 | 0.00 | 81 | 1005.1 |
| 20260504034044 | 35 | 158 | 0.0 | 1.0 | 0.00 | 0.00 | 0.00 | 81 | 1005.2 |
| 20260504033813 | 35 | 158 | 0.0 | 1.0 | 0.00 | 0.00 | 0.00 | 80 | 1005.2 |
| 20260504033042 | 35 | 206 | 1.0 | 2.0 | 0.00 | 0.00 | 0.00 | 81 | 1005.3 |
| 20260504032543 | 35 | 213 | 1.0 | 2.0 | 0.00 | 0.00 | 0.00 | 81 | 1005.2 |
| 20260504032042 | 34 | 163 | 0.0 | 2.0 | 0.00 | 0.00 | 0.00 | 81 | 1005.3 |
| 20260504031543 | 34 | 158 | 0.0 | 2.0 | 0.00 | 0.00 | 0.00 | 81 | 1005.2 |
| 20260504031042 | 34 | 168 | 0.0 | 2.0 | 0.00 | 0.00 | 0.00 | 82 | 1005.2 |
| 20260504030548 | 33 | 169 | 0.0 | 1.0 | 0.00 | 0.00 | 0.00 | 83 | 1005.2 |
| 20260504030542 | 33 | 172 | 0.0 | 1.0 | 0.00 | 0.00 | 0.00 | 83 | 1005.2 |
| 20260504025542 | 33 | 215 | 0.0 | 1.0 | 0.00 | 0.00 | 0.00 | 84 | 1005.4 |
| 20260504025042 | 33 | 207 | 0.0 | 1.0 | 0.00 | 0.00 | 0.00 | 84 | 1005.5 |
| 20260504024542 | 33 | 164 | 0.0 | 1.0 | 0.00 | 0.00 | 0.00 | 84 | 1005.4 |
| 20260504024042 | 33 | 206 | 0.0 | 1.0 | 0.00 | 0.00 | 0.00 | 84 | 1005.5 |
| 20260504023542 | 33 | 158 | 0.0 | 1.0 | 0.00 | 0.00 | 0.00 | 83 | 1005.4 |
| 20260504023043 | 33 | 163 | 0.0 | 2.0 | 0.00 | 0.00 | 0.00 | 83 | 1005.5 |
| 20260504022542 | 33 | 155 | 1.0 | 2.0 | 0.00 | 0.00 | 0.00 | 82 | 1005.6 |
| 20260504022040 | 33 | 170 | 0.0 | 2.0 | 0.00 | 0.00 | 0.00 | 82 | 1005.5 |
| 20260504021540 | 33 | 196 | 0.0 | 2.0 | 0.00 | 0.00 | 0.00 | 82 | 1005.5 |
| 20260504021040 | 33 | 199 | 0.0 | 2.0 | 0.00 | 0.00 | 0.00 | 82 | 1005.5 |
| 20260504020539 | 33 | 145 | 0.0 | 1.0 | 0.00 | 0.00 | 0.00 | 81 | 1005.5 |
| 20260504020038 | 34 | 197 | 0.0 | 2.0 | 0.00 | 0.00 | 0.00 | 81 | 1005.4 |
| 20260504015538 | 34 | 149 | 0.0 | 2.0 | 0.00 | 0.00 | 0.00 | 81 | 1005.5 |
| 20260504015038 | 34 | 154 | 0.0 | 1.0 | 0.00 | 0.00 | 0.00 | 80 | 1005.4 |
| 20260504014538 | 34 | 196 | 0.0 | 1.0 | 0.00 | 0.00 | 0.00 | 80 | 1005.3 |
| 20260504014038 | 35 | 191 | 0.0 | 1.0 | 0.00 | 0.00 | 0.00 | 79 | 1005.3 |
| 20260504013538 | 35 | 161 | 0.0 | 1.0 | 0.00 | 0.00 | 0.00 | 78 | 1005.2 |
| 20260504013038 | 35 | 201 | 0.0 | 2.0 | 0.00 | 0.00 | 0.00 | 78 | 1005.3 |
| 20260504012538 | 35 | 165 | 0.0 | 2.0 | 0.00 | 0.00 | 0.00 | 78 | 1005.2 |
| 20260504012308 | 35 | 153 | 0.0 | 0.0 | 0.00 | 0.00 | 0.00 | 77 | 1005.2 |
| 20260504011536 | 36 | 170 | 0.0 | 1.0 | 0.00 | 0.00 | 0.00 | 76 | 1005.2 |
| 20260504011037 | 36 | 156 | 0.0 | 1.0 | 0.00 | 0.00 | 0.00 | 76 | 1005.1 |
| 20260504010806 | 37 | 201 | 1.0 | 3.0 | 0.00 | 0.00 | 0.00 | 75 | 1004.9 |
| 20260504010036 | 37 | 200 | 1.0 | 3.0 | 0.00 | 0.00 | 0.00 | 75 | 1004.9 |
| 20260504005536 | 37 | 168 | 0.0 | 1.0 | 0.00 | 0.00 | 0.00 | 74 | 1004.8 |
| 20260504005036 | 37 | 207 | 0.0 | 1.0 | 0.00 | 0.00 | 0.00 | 74 | 1004.7 |
| 20260504004536 | 37 | 163 | 0.0 | 0.0 | 0.00 | 0.00 | 0.00 | 74 | 1004.7 |
| 20260504004036 | 38 | 154 | 0.0 | 0.0 | 0.00 | 0.00 | 0.00 | 74 | 1004.6 |
| 20260504003536 | 38 | 154 | 0.0 | 0.0 | 0.00 | 0.00 | 0.00 | 73 | 1004.6 |
| 20260504003036 | 38 | 154 | 0.0 | 0.0 | 0.00 | 0.00 | 0.00 | 72 | 1004.6 |
| 20260504002534 | 38 | 154 | 0.0 | 0.0 | 0.00 | 0.00 | 0.00 | 72 | 1004.5 |
| 20260504002034 | 39 | 154 | 0.0 | 0.0 | 0.00 | 0.00 | 0.00 | 72 | 1004.5 |
| 20260504001534 | 39 | 154 | 0.0 | 0.0 | 0.00 | 0.00 | 0.00 | 71 | 1004.3 |
| 20260504001034 | 40 | 154 | 0.0 | 0.0 | 0.00 | 0.00 | 0.00 | 70 | 1004.1 |
| 20260504000534 | 40 | 154 | 0.0 | 0.0 | 0.00 | 0.00 | 0.00 | 69 | 1004.0 |
| 20260504000035 | 41 | 154 | 0.0 | 0.0 | 0.00 | 0.00 | 0.00 | 68 | 1004.0 |
| 20260503235534 | 41 | 154 | 0.0 | 0.0 | 0.00 | 0.00 | 0.00 | 66 | 1003.9 |
| 20260503235033 | 42 | 154 | 0.0 | 0.0 | 0.00 | 0.00 | 0.00 | 64 | 1004.0 |
| 20260503234534 | 42 | 165 | 0.0 | 1.0 | 0.00 | 0.00 | 0.00 | 64 | 1003.9 |
| 20260503234304 | 43 | 266 | 0.0 | 1.0 | 0.00 | 0.00 | 0.00 | 61 | 1003.9 |
| 20260503233532 | 44 | 236 | 0.0 | 1.0 | 0.00 | 0.00 | 0.00 | 62 | 1003.8 |
| 20260503233032 | 45 | 226 | 0.0 | 2.0 | 0.00 | 0.00 | 0.00 | 58 | 1003.7 |
| 20260503232532 | 46 | 215 | 1.0 | 3.0 | 0.00 | 0.00 | 0.00 | 54 | 1003.7 |
| 20260503232032 | 46 | 217 | 1.0 | 3.0 | 0.00 | 0.00 | 0.00 | 49 | 1003.7 |
| 20260503231532 | 47 | 143 | 1.0 | 7.0 | 0.00 | 0.00 | 0.00 | 48 | 1003.7 |
| 20260503231032 | 48 | 325 | 2.0 | 8.0 | 0.00 | 0.00 | 0.00 | 46 | 1003.6 |
| 20260503230532 | 48 | 203 | 1.0 | 8.0 | 0.00 | 0.00 | 0.00 | 47 | 1003.7 |
| 20260503230032 | 48 | 108 | 2.0 | 12.0 | 0.00 | 0.00 | 0.00 | 47 | 1003.7 |
| 20260503225532 | 48 | 247 | 3.0 | 12.0 | 0.00 | 0.00 | 0.00 | 46 | 1003.7 |
| 20260503225037 | 48 | 101 | 2.0 | 12.0 | 0.00 | 0.00 | 0.00 | 46 | 1003.6 |
| 20260503225032 | 48 | 119 | 2.0 | 7.0 | 0.00 | 0.00 | 0.00 | 46 | 1003.7 |
| 20260503224032 | 48 | 28 | 1.0 | 12.0 | 0.00 | 0.00 | 0.00 | 47 | 1003.7 |
| 20260503223802 | 48 | 336 | 1.0 | 6.0 | 0.00 | 0.00 | 0.00 | 47 | 1003.6 |
| 20260503223303 | 48 | 23 | 1.0 | 6.0 | 0.00 | 0.00 | 0.00 | 48 | 1003.6 |
| 20260503222534 | 48 | 276 | 2.0 | 7.0 | 0.00 | 0.00 | 0.00 | 48 | 1003.7 |
| 20260503222033 | 49 | 343 | 2.0 | 7.0 | 0.00 | 0.00 | 0.00 | 47 | 1003.7 |
| 20260503221533 | 49 | 27 | 2.0 | 6.0 | 0.00 | 0.00 | 0.00 | 47 | 1003.7 |
| 20260503221029 | 49 | 26 | 2.0 | 5.0 | 0.00 | 0.00 | 0.00 | 47 | 1003.7 |
| 20260503220530 | 49 | 287 | 3.0 | 7.0 | 0.00 | 0.00 | 0.00 | 47 | 1003.7 |
| 20260503220029 | 49 | 10 | 3.0 | 8.0 | 0.00 | 0.00 | 0.00 | 46 | 1003.6 |
| 20260503215530 | 49 | 191 | 3.0 | 11.0 | 0.00 | 0.00 | 0.00 | 47 | 1003.6 |
| 20260503215028 | 49 | 60 | 4.0 | 11.0 | 0.00 | 0.00 | 0.00 | 47 | 1003.7 |
| 20260503214528 | 49 | 8 | 3.0 | 11.0 | 0.00 | 0.00 | 0.00 | 49 | 1003.6 |
| 20260503214027 | 48 | 168 | 2.0 | 11.0 | 0.00 | 0.00 | 0.00 | 48 | 1003.6 |
| 20260503213528 | 48 | 33 | 1.0 | 3.0 | 0.00 | 0.00 | 0.00 | 50 | 1003.6 |
| 20260503213027 | 48 | 23 | 1.0 | 6.0 | 0.00 | 0.00 | 0.00 | 49 | 1003.6 |
| 20260503212528 | 48 | 128 | 3.0 | 9.0 | 0.00 | 0.00 | 0.00 | 48 | 1003.6 |
| 20260503212259 | 48 | 55 | 4.0 | 13.0 | 0.00 | 0.00 | 0.00 | 49 | 1003.5 |
| 20260503211528 | 48 | 15 | 5.0 | 13.0 | 0.00 | 0.00 | 0.00 | 48 | 1003.6 |
| 20260503211027 | 48 | 51 | 5.0 | 13.0 | 0.00 | 0.00 | 0.00 | 48 | 1003.5 |
| 20260503210528 | 49 | 336 | 4.0 | 9.0 | 0.00 | 0.00 | 0.00 | 47 | 1003.6 |
| 20260503210027 | 49 | 144 | 3.0 | 11.0 | 0.00 | 0.00 | 0.00 | 47 | 1003.5 |
| 20260503205528 | 49 | 217 | 3.0 | 11.0 | 0.00 | 0.00 | 0.00 | 48 | 1003.4 |
| 20260503205028 | 49 | 291 | 3.0 | 7.0 | 0.00 | 0.00 | 0.00 | 51 | 1003.6 |
| 20260503204525 | 49 | 331 | 4.0 | 11.0 | 0.00 | 0.00 | 0.00 | 50 | 1003.5 |
| 20260503204026 | 48 | 59 | 5.0 | 18.0 | 0.00 | 0.00 | 0.00 | 48 | 1003.5 |
| 20260503203526 | 48 | 58 | 5.0 | 18.0 | 0.00 | 0.00 | 0.00 | 49 | 1003.5 |
| 20260503203026 | 48 | 73 | 4.0 | 14.0 | 0.00 | 0.00 | 0.00 | 48 | 1003.6 |
| 20260503202525 | 48 | 21 | 4.0 | 14.0 | 0.00 | 0.00 | 0.00 | 50 | 1003.4 |
| 20260503202026 | 48 | 117 | 5.0 | 14.0 | 0.00 | 0.00 | 0.00 | 49 | 1003.4 |
| 20260503201526 | 48 | 196 | 6.0 | 14.0 | 0.00 | 0.00 | 0.00 | 48 | 1003.4 |
| 20260503201025 | 49 | 359 | 5.0 | 12.0 | 0.00 | 0.00 | 0.00 | 48 | 1003.4 |
| 20260503200523 | 48 | 67 | 3.0 | 9.0 | 0.00 | 0.00 | 0.00 | 50 | 1003.4 |
| 20260503200024 | 47 | 172 | 3.0 | 10.0 | 0.00 | 0.00 | 0.00 | 49 | 1003.7 |
| 20260503195524 | 47 | 279 | 2.0 | 10.0 | 0.00 | 0.00 | 0.00 | 50 | 1003.7 |
| 20260503195023 | 47 | 334 | 4.0 | 11.0 | 0.00 | 0.00 | 0.00 | 50 | 1003.7 |
| 20260503194524 | 47 | 241 | 5.0 | 13.0 | 0.00 | 0.00 | 0.00 | 49 | 1003.6 |
| 20260503194253 | 47 | 332 | 4.0 | 13.0 | 0.00 | 0.00 | 0.00 | 50 | 1003.8 |
| 20260503193522 | 47 | 291 | 4.0 | 11.0 | 0.00 | 0.00 | 0.00 | 50 | 1003.7 |
| 20260503193021 | 47 | 75 | 5.0 | 19.0 | 0.00 | 0.00 | 0.00 | 50 | 1003.8 |
| 20260503192520 | 47 | 109 | 6.0 | 19.0 | 0.00 | 0.00 | 0.00 | 51 | 1004.0 |
| 20260503192019 | 47 | 93 | 6.0 | 14.0 | 0.00 | 0.00 | 0.00 | 49 | 1004.0 |
| 20260503191751 | 47 | 324 | 5.0 | 13.0 | 0.00 | 0.00 | 0.00 | 48 | 1004.1 |
| 20260503191019 | 48 | 39 | 5.0 | 13.0 | 0.00 | 0.00 | 0.00 | 48 | 1003.9 |
| 20260503190520 | 48 | 186 | 5.0 | 16.0 | 0.00 | 0.00 | 0.00 | 47 | 1004.0 |
| 20260503190019 | 48 | 122 | 4.0 | 16.0 | 0.00 | 0.00 | 0.00 | 49 | 1004.0 |
| 20260503185751 | 48 | 322 | 5.0 | 15.0 | 0.00 | 0.00 | 0.00 | 50 | 1003.9 |
| 20260503185020 | 47 | 264 | 5.0 | 15.0 | 0.00 | 0.00 | 0.00 | 48 | 1003.8 |
| 20260503184519 | 48 | 61 | 3.0 | 14.0 | 0.00 | 0.00 | 0.00 | 48 | 1003.9 |
| 20260503184019 | 48 | 101 | 4.0 | 13.0 | 0.00 | 0.00 | 0.00 | 48 | 1003.8 |
| 20260503183520 | 48 | 267 | 5.0 | 13.0 | 0.00 | 0.00 | 0.00 | 48 | 1003.8 |
| 20260503183019 | 48 | 50 | 5.0 | 15.0 | 0.00 | 0.00 | 0.00 | 48 | 1003.9 |
| 20260503182520 | 49 | 128 | 5.0 | 18.0 | 0.00 | 0.00 | 0.00 | 47 | 1003.8 |
| 20260503182019 | 49 | 328 | 6.0 | 18.0 | 0.00 | 0.00 | 0.00 | 48 | 1003.6 |
| 20260503181520 | 48 | 349 | 5.0 | 16.0 | 0.00 | 0.00 | 0.00 | 50 | 1003.8 |
| 20260503181019 | 47 | 288 | 5.0 | 16.0 | 0.00 | 0.00 | 0.00 | 50 | 1003.9 |
| 20260503180520 | 47 | 279 | 6.0 | 16.0 | 0.00 | 0.00 | 0.00 | 51 | 1003.8 |
| 20260503180019 | 46 | 0 | 5.0 | 15.0 | 0.00 | 0.00 | 0.00 | 51 | 1004.0 |
| 20260503175520 | 46 | 100 | 6.0 | 13.0 | 0.00 | 0.00 | 0.00 | 51 | 1004.1 |
| 20260503175019 | 47 | 291 | 6.0 | 13.0 | 0.00 | 0.00 | 0.00 | 52 | 1003.9 |
| 20260503174520 | 47 | 143 | 5.0 | 13.0 | 0.00 | 0.00 | 0.00 | 51 | 1003.8 |
| 20260503174249 | 47 | 0 | 4.0 | 12.0 | 0.00 | 0.00 | 0.00 | 52 | 1003.8 |
| 20260503173518 | 47 | 168 | 5.0 | 12.0 | 0.00 | 0.00 | 0.00 | 52 | 1003.8 |
| 20260503173017 | 47 | 144 | 6.0 | 15.0 | 0.00 | 0.00 | 0.00 | 53 | 1003.8 |
| 20260503172746 | 47 | 45 | 6.0 | 17.0 | 0.00 | 0.00 | 0.00 | 52 | 1003.8 |
| 20260503172013 | 47 | 83 | 6.0 | 17.0 | 0.00 | 0.00 | 0.00 | 51 | 1003.9 |
| 20260503171514 | 47 | 35 | 7.0 | 22.0 | 0.00 | 0.00 | 0.00 | 52 | 1003.8 |
| 20260503171013 | 48 | 272 | 8.0 | 26.0 | 0.00 | 0.00 | 0.00 | 51 | 1003.9 |
| 20260503170514 | 48 | 7 | 6.0 | 26.0 | 0.00 | 0.00 | 0.00 | 51 | 1003.9 |
| 20260503151001 | 46 | 40 | 5.0 | 13.0 | 0.00 | 0.00 | 0.00 | 58 | 1004.0 |
| 20260503150501 | 46 | 50 | 5.0 | 13.0 | 0.00 | 0.00 | 0.00 | 57 | 1003.9 |